GW5741 Weather Reports


time (UTC)temp
F
wind
direction
speed
knots
gust
knots
rain 1hr
in
rain 24hr
in
rain mn
in
humidity
%
barometer
mb
20260906065949 64 360 0.0 0.0 0.00 0.00 0.05 99 1013.1
20260906065449 64 120 0.0 0.9 0.01 0.00 0.05 99 1013.0
20260906064949 64 77 0.0 0.9 0.01 0.00 0.05 99 1013.0
20260906064449 64 360 0.0 0.0 0.01 0.00 0.05 99 1013.0
20260906063949 64 360 0.0 0.0 0.01 0.00 0.05 99 1013.1
20260906063449 64 360 0.0 0.0 0.01 0.00 0.05 99 1013.0
20260906062949 64 94 0.0 1.7 0.01 0.00 0.05 98 1013.2
20260906062449 64 100 0.9 1.7 0.01 0.00 0.05 98 1013.2
20260906061949 64 97 0.9 1.7 0.01 0.00 0.05 98 1013.2
20260906061449 64 360 0.0 0.0 0.01 0.00 0.05 98 1013.4
20260906060949 64 97 0.9 2.6 0.01 0.00 0.05 98 1013.4
20260906060449 64 108 1.7 2.6 0.01 0.00 0.06 99 1013.4
20260906055948 64 84 0.0 0.9 0.00 0.00 0.06 99 1013.4
20260906055449 64 360 0.0 0.0 0.00 0.00 0.05 99 1013.4
20260906054949 64 101 0.9 1.7 0.00 0.00 0.05 99 1013.3
20260906054450 64 116 0.0 1.7 0.00 0.00 0.05 99 1013.3
20260906053949 64 104 0.0 0.9 0.00 0.00 0.05 99 1013.3
20260906053450 64 360 0.0 0.0 0.00 0.00 0.05 99 1013.3
20260906052949 64 102 0.0 0.9 0.00 0.00 0.05 99 1013.3
20260906052450 64 360 0.0 0.0 0.04 0.00 0.05 99 1013.3
20260906051949 64 360 0.0 0.0 0.04 0.00 0.04 98 1013.2
20260906051449 64 360 0.0 0.0 0.04 0.00 0.04 98 1013.2
20260906050949 64 360 0.0 0.0 0.04 0.00 0.04 98 1013.2
20260906050449 64 360 0.0 0.0 0.04 0.00 0.04 98 1013.3
20260906045949 64 360 0.0 0.0 0.04 0.00 0.04 97 1013.3
20260906045449 64 360 0.0 0.0 0.04 0.00 0.04 97 1013.3
20260906044949 64 360 0.0 0.0 0.04 0.00 0.04 97 1013.3
20260906044448 65 360 0.0 0.0 0.04 0.00 0.04 97 1013.3
20260906043949 65 360 0.0 0.0 0.04 0.00 0.04 96 1013.2
20260906043449 65 360 0.0 0.0 0.04 0.00 0.04 96 1013.3
20260906042950 65 360 0.0 0.0 0.04 0.00 0.04 96 1013.3
20260906042449 65 360 0.0 0.0 0.04 0.00 0.04 94 1013.2
20260906041949 66 360 0.0 0.0 0.00 0.00 0.04 93 1013.3
20260906041449 65 82 0.9 1.7 0.00 0.00 0.00 92 1013.3
20260906040949 65 82 0.0 0.9 0.00 0.00 0.00 92 1013.4
20260906040449 65 360 0.0 0.0 0.00 0.00 0.00 92 1013.3
20260906035951 65 71 0.0 0.9 0.00 0.00 0.00 92 1013.3
20260906035450 65 360 0.0 0.0 0.00 0.00 0.00 91 1013.1
20260906034954 65 95 0.0 0.0 0.00 0.00 0.00 91 1013.1
20260906034449 66 86 0.0 1.7 0.00 0.00 0.00 91 1013.1
20260906033949 65 76 0.0 0.0 0.00 0.00 0.00 91 1013.0
20260906033449 65 360 0.0 0.0 0.00 0.00 0.00 91 1013.0
20260906032949 65 360 0.0 0.0 0.00 0.00 0.00 91 1013.0
20260906032450 65 360 0.0 0.0 0.00 0.00 0.00 90 1013.0
20260906031949 65 360 0.0 0.0 0.00 0.00 0.00 90 1012.9
20260906031449 65 109 0.0 0.9 0.00 0.00 0.00 89 1012.9
20260906030952 65 70 0.0 0.0 0.00 0.00 0.00 89 1012.8
20260906030449 65 73 0.0 0.9 0.00 0.00 0.00 89 1012.8
20260906025949 65 74 0.0 0.9 0.00 0.00 0.00 89 1012.8
20260906025449 65 75 0.0 1.7 0.00 0.00 0.00 88 1012.8
20260906024951 66 83 0.0 0.9 0.00 0.00 0.00 88 1012.8
20260906024449 66 79 0.0 1.7 0.00 0.00 0.00 88 1012.9
20260906023950 65 72 0.9 1.7 0.00 0.00 0.00 88 1012.8
20260906023449 65 360 0.0 0.0 0.00 0.00 0.00 88 1012.8
20260906022949 65 96 0.0 0.9 0.00 0.00 0.00 88 1012.8
20260906022449 66 360 0.0 0.0 0.00 0.00 0.00 88 1012.7
20260906021949 66 105 0.0 0.9 0.00 0.00 0.00 87 1012.7
20260906021449 66 360 0.0 0.0 0.00 0.00 0.00 87 1012.7
20260906020949 66 360 0.0 0.0 0.00 0.00 0.00 87 1012.7
20260906020450 66 360 0.0 0.0 0.00 0.00 0.00 86 1012.7
20260906015949 66 360 0.0 0.0 0.00 0.00 0.00 86 1012.8
20260906015449 67 360 0.0 0.0 0.00 0.00 0.00 85 1012.8
20260906014950 67 360 0.0 0.0 0.00 0.00 0.00 85 1012.7
20260906014449 67 360 0.0 0.0 0.00 0.00 0.00 84 1012.8
20260906013950 67 101 0.0 0.0 0.00 0.00 0.00 83 1012.6
20260906013449 68 360 0.0 0.0 0.00 0.00 0.00 83 1012.5
20260906012949 68 360 0.0 0.0 0.00 0.00 0.00 82 1012.5
20260906012449 68 360 0.0 0.0 0.00 0.00 0.00 81 1012.4
20260906011949 68 88 0.0 0.0 0.00 0.00 0.00 80 1012.3
20260906011449 68 360 0.0 0.0 0.00 0.00 0.00 80 1012.3
20260906010949 68 83 0.0 0.9 0.00 0.00 0.00 79 1012.3
20260906010449 68 360 0.0 0.0 0.00 0.00 0.00 79 1012.2
20260906005949 69 74 0.0 1.7 0.00 0.00 0.00 79 1012.1
20260906005450 69 99 0.0 0.9 0.00 0.00 0.00 79 1012.0
20260906004949 69 25 0.0 0.9 0.00 0.00 0.00 78 1012.0
20260906004449 69 107 0.0 0.0 0.00 0.00 0.00 78 1012.0
20260906003950 69 360 0.0 0.0 0.00 0.00 0.00 77 1012.0
20260906003449 70 75 0.0 0.9 0.00 0.00 0.00 77 1011.9
20260906002949 70 360 0.0 0.0 0.00 0.00 0.00 77 1012.0
20260906002449 70 360 0.0 0.0 0.00 0.00 0.00 75 1011.9
20260906001949 71 80 0.0 0.9 0.00 0.00 0.00 74 1011.7
20260906001449 71 57 0.0 0.0 0.00 0.00 0.00 74 1011.7
20260906000949 71 78 0.0 1.7 0.00 0.00 0.00 74 1011.7
20260906000449 71 86 0.0 0.9 0.00 0.00 0.00 73 1011.6
20260905235949 71 71 0.0 0.9 0.00 0.00 0.00 72 1011.5
20260905235449 72 50 0.0 0.9 0.00 0.00 0.00 72 1011.5
20260905234515 72 85 0.0 0.9 0.00 0.00 0.00 71 1011.5
20260905233949 72 48 0.0 1.7 0.00 0.00 0.00 70 1011.4
20260905233449 73 360 0.0 0.0 0.00 0.00 0.00 71 1011.4
20260905232949 73 101 0.0 0.9 0.00 0.00 0.00 70 1011.3
20260905232450 73 82 0.0 0.9 0.00 0.00 0.00 69 1011.2
20260905231949 73 82 0.0 0.0 0.00 0.00 0.00 69 1011.3
20260905231451 74 70 0.0 0.9 0.00 0.00 0.00 69 1011.3
20260905230949 74 84 0.0 1.7 0.00 0.00 0.00 68 1011.2
20260905230449 74 360 0.0 0.0 0.00 0.00 0.00 68 1011.2
20260905225949 74 74 0.0 1.7 0.00 0.00 0.00 67 1011.0
20260905225449 74 118 0.9 1.7 0.00 0.00 0.00 67 1010.9
20260905224950 74 82 0.9 1.7 0.00 0.00 0.00 66 1011.0
20260905224450 74 59 0.0 1.7 0.00 0.00 0.00 64 1011.0
20260905223949 74 18 0.0 0.9 0.00 0.00 0.00 64 1010.9
20260905223449 75 77 0.0 1.7 0.00 0.00 0.00 63 1010.8
20260905222949 75 75 0.9 1.7 0.00 0.00 0.00 63 1010.8
20260905222449 75 94 0.0 0.9 0.00 0.00 0.00 64 1010.8
20260905221949 75 110 0.0 1.7 0.00 0.00 0.00 62 1010.7
20260905221449 75 104 0.9 1.7 0.00 0.00 0.00 63 1010.8
20260905220949 75 79 0.0 1.7 0.00 0.00 0.00 63 1010.7
20260905220449 76 114 0.9 3.5 0.00 0.00 0.00 62 1010.7
20260905215949 76 360 0.0 0.9 0.00 0.00 0.00 61 1010.6
20260905215449 76 66 0.9 1.7 0.00 0.00 0.00 60 1010.7
20260905214949 76 46 0.0 1.7 0.00 0.00 0.00 59 1010.7
20260905214450 76 103 0.9 2.6 0.00 0.00 0.00 60 1010.7
20260905213949 76 92 0.0 0.9 0.00 0.00 0.00 61 1010.7
20260905213449 76 83 0.0 1.7 0.00 0.00 0.00 60 1010.7
20260905212949 77 95 0.0 1.7 0.00 0.00 0.00 60 1010.6
20260905212449 77 74 0.0 1.7 0.00 0.00 0.00 58 1010.5
20260905211951 77 124 0.0 1.7 0.00 0.00 0.00 57 1010.5
20260905211450 78 91 0.9 1.7 0.00 0.00 0.00 56 1010.4
20260905210949 78 77 0.9 1.7 0.00 0.00 0.00 54 1010.3
20260905210449 79 66 0.0 1.7 0.00 0.00 0.00 53 1010.3
20260905205949 80 21 0.9 1.7 0.00 0.00 0.00 51 1010.3
20260905205449 81 351 0.9 1.7 0.00 0.00 0.00 48 1010.2
20260905204949 81 41 1.7 3.5 0.00 0.00 0.00 47 1010.1
20260905204449 81 66 0.9 1.7 0.00 0.00 0.00 48 1010.1
20260905203949 80 42 1.7 3.5 0.00 0.00 0.00 48 1010.0
20260905203449 80 71 1.7 3.5 0.00 0.00 0.00 50 1010.0
20260905202949 80 56 0.9 1.7 0.00 0.00 0.00 51 1010.0
20260905202449 80 137 0.9 1.7 0.00 0.00 0.00 54 1009.9
20260905201949 79 39 0.9 2.6 0.00 0.00 0.00 52 1010.0
20260905201449 78 121 0.9 1.7 0.00 0.00 0.00 55 1010.1
20260905200949 79 55 1.7 2.6 0.00 0.00 0.00 55 1010.1
20260905200449 80 54 1.7 4.3 0.00 0.00 0.00 53 1010.1
20260905195949 80 81 1.7 2.6 0.00 0.00 0.00 52 1010.1
20260905195449 79 54 0.9 2.6 0.00 0.00 0.00 53 1010.0
20260905194949 80 62 0.9 1.7 0.00 0.00 0.00 51 1009.9
20260905194449 79 24 1.7 1.7 0.00 0.00 0.00 53 1010.0
20260905193949 80 44 1.7 1.7 0.00 0.00 0.00 54 1010.0
20260905193449 79 10 0.9 1.7 0.00 0.00 0.00 55 1010.1
20260905192949 79 64 0.9 1.7 0.00 0.00 0.00 53 1010.1
20260905192449 79 64 1.7 2.6 0.00 0.00 0.00 54 1010.1
20260905191949 79 50 0.9 2.6 0.00 0.00 0.00 52 1010.1
20260905191449 79 56 2.6 3.5 0.00 0.00 0.00 53 1010.1
20260905190950 79 112 0.0 0.9 0.00 0.00 0.00 55 1010.0
20260905190449 79 63 1.7 2.6 0.00 0.00 0.00 52 1010.1
20260905185949 78 21 0.0 0.9 0.00 0.00 0.00 53 1010.1
20260905185449 78 37 0.9 2.6 0.00 0.00 0.00 55 1010.2
20260905184949 79 59 1.7 3.5 0.00 0.00 0.00 52 1010.1
20260905184449 79 52 0.9 2.6 0.00 0.00 0.00 53 1010.2
20260905183949 78 52 1.7 2.6 0.00 0.00 0.00 54 1010.2
20260905183449 78 50 1.7 3.5 0.00 0.00 0.00 55 1010.2
20260905182949 78 76 0.0 0.9 0.00 0.00 0.00 56 1010.3
20260905182451 78 65 0.9 2.6 0.00 0.00 0.00 55 1010.3
20260905181949 78 68 1.7 3.5 0.00 0.00 0.00 56 1010.2
20260905181450 78 31 0.9 2.6 0.00 0.00 0.00 55 1010.4
20260905180949 78 83 1.7 3.5 0.00 0.00 0.00 56 1010.4
20260905180449 77 56 0.9 1.7 0.00 0.00 0.00 57 1010.5
20260905175949 77 40 0.9 1.7 0.00 0.00 0.00 57 1010.5
20260905175449 76 33 0.9 2.6 0.00 0.00 0.00 57 1010.5
20260905174950 76 82 0.9 2.6 0.00 0.00 0.00 57 1010.5
20260905174449 77 39 0.9 2.6 0.00 0.00 0.00 57 1010.6
20260905173950 78 43 0.9 2.6 0.00 0.00 0.00 55 1010.6
20260905173449 78 46 1.7 2.6 0.00 0.00 0.00 54 1010.6
20260905172949 78 81 0.9 1.7 0.00 0.00 0.00 56 1010.7
20260905172449 79 55 0.9 1.7 0.00 0.00 0.00 55 1010.7
20260905171949 79 76 0.9 1.7 0.00 0.00 0.00 53 1010.6
20260905171450 78 22 0.0 1.7 0.00 0.00 0.00 54 1010.7
20260905170949 77 85 0.9 2.6 0.00 0.00 0.00 58 1010.7
20260905170449 77 65 0.9 2.6 0.00 0.00 0.00 58 1010.7
20260905165950 77 85 0.0 1.7 0.00 0.00 0.00 58 1010.7
20260905165449 77 62 1.7 2.6 0.00 0.00 0.00 57 1010.7
20260905164950 77 65 1.7 1.7 0.00 0.00 0.00 58 1010.8
20260905164449 77 107 0.0 1.7 0.00 0.00 0.00 57 1010.8
20260905163949 76 38 0.9 1.7 0.00 0.00 0.00 58 1010.7
20260905163449 77 46 1.7 4.3 0.00 0.00 0.00 57 1010.8
20260905162949 77 51 1.7 3.5 0.00 0.00 0.00 57 1010.7
20260905162450 77 77 1.7 2.6 0.00 0.00 0.00 58 1010.7
20260905161949 76 98 0.9 1.7 0.00 0.00 0.00 57 1010.7
20260905161450 76 52 1.7 3.5 0.00 0.00 0.00 59 1010.7
20260905160949 76 94 0.9 2.6 0.00 0.00 0.00 60 1010.7
20260905160449 75 62 1.7 2.6 0.00 0.00 0.00 62 1010.7
20260905155949 75 73 0.9 2.6 0.00 0.00 0.00 64 1010.8
20260905155449 76 54 1.7 4.3 0.00 0.00 0.00 60 1010.8
20260905154950 76 54 1.7 2.6 0.00 0.00 0.00 61 1010.8
20260905154449 76 66 1.7 2.6 0.00 0.00 0.00 60 1010.7
20260905153950 76 63 1.7 3.5 0.00 0.00 0.00 60 1010.7
20260905153449 76 64 0.9 2.6 0.00 0.00 0.00 60 1010.6
20260905152949 76 61 1.7 2.6 0.00 0.00 0.00 59 1010.7
20260905152449 76 84 1.7 3.5 0.00 0.00 0.00 60 1010.8
20260905151949 76 4 0.9 3.5 0.00 0.00 0.00 59 1010.8
20260905151449 75 58 1.7 3.5 0.00 0.00 0.00 61 1010.8
20260905150949 75 79 0.9 1.7 0.00 0.00 0.00 62 1010.8
20260905150449 74 15 0.9 2.6 0.00 0.00 0.00 62 1010.8
20260905145949 74 73 1.7 3.5 0.00 0.00 0.00 65 1010.9
20260905145449 73 35 0.9 1.7 0.00 0.00 0.00 66 1010.8
20260905144951 73 67 0.9 1.7 0.00 0.00 0.00 65 1010.7
20260905144449 73 89 1.7 3.5 0.00 0.00 0.00 65 1010.9
20260905143949 72 34 0.0 0.9 0.00 0.00 0.00 68 1010.9
20260905143449 72 74 0.9 1.7 0.00 0.00 0.00 69 1010.9
20260905142949 72 71 1.7 2.6 0.00 0.00 0.00 70 1010.9
20260905142449 72 84 1.7 1.7 0.00 0.00 0.00 69 1010.8
20260905141951 72 71 1.7 1.7 0.00 0.00 0.00 70 1010.8
20260905141449 72 48 2.6 3.5 0.00 0.00 0.00 70 1010.8
20260905140949 72 66 0.9 1.7 0.00 0.00 0.00 72 1010.7
20260905140449 71 57 1.7 1.7 0.00 0.00 0.00 72 1010.8
20260905135949 71 83 0.9 0.9 0.00 0.00 0.00 72 1010.8
20260905135449 71 81 0.9 1.7 0.00 0.00 0.00 72 1010.8
20260905134949 71 84 1.7 2.6 0.00 0.00 0.00 73 1010.8
20260905134450 70 89 0.0 0.9 0.00 0.00 0.00 75 1010.9
20260905133949 70 91 0.0 0.0 0.00 0.00 0.00 75 1010.9
20260905133451 70 65 0.9 1.7 0.00 0.00 0.00 75 1010.9
20260905132950 69 91 0.0 0.9 0.00 0.00 0.00 77 1011.0
20260905132450 70 94 0.0 0.9 0.00 0.00 0.00 76 1011.0
20260905131949 70 55 1.7 1.7 0.00 0.00 0.00 75 1011.0
20260905131449 70 360 0.9 0.9 0.00 0.00 0.00 76 1011.0
20260905130949 69 67 0.0 0.0 0.00 0.00 0.00 76 1011.2
20260905130449 69 63 0.9 1.7 0.00 0.00 0.00 76 1011.2
20260905125949 69 67 1.7 1.7 0.00 0.00 0.00 76 1011.2
20260905125028 68 69 0.9 1.7 0.00 0.00 0.00 77 1011.0
20260905124449 68 86 0.0 1.7 0.00 0.00 0.00 78 1011.0
20260905123949 68 62 0.9 2.6 0.00 0.00 0.00 78 1011.2
20260905123449 68 59 1.7 2.6 0.00 0.00 0.00 78 1011.2
20260905122949 68 48 0.9 2.6 0.00 0.00 0.00 78 1011.3
20260905122450 68 50 1.7 2.6 0.00 0.00 0.00 78 1011.3
20260905121950 68 47 0.9 1.7 0.00 0.00 0.00 77 1011.3
20260905121449 68 65 1.7 3.5 0.00 0.00 0.00 78 1011.3
20260905120949 67 40 1.7 2.6 0.00 0.00 0.00 78 1011.3
20260905120450 67 58 0.9 1.7 0.00 0.00 0.00 79 1011.2
20260905115949 67 30 0.9 3.5 0.00 0.00 0.00 79 1011.2
20260905115449 66 80 0.9 2.6 0.00 0.00 0.00 80 1011.2
20260905114949 66 55 0.9 2.6 0.00 0.00 0.00 81 1011.2
20260905114449 65 64 0.9 1.7 0.00 0.00 0.00 81 1011.0
20260905113949 65 76 0.0 1.7 0.00 0.00 0.00 83 1010.9
20260905113449 64 125 0.9 1.7 0.00 0.00 0.00 84 1010.9
20260905112949 64 76 1.7 1.7 0.00 0.00 0.00 85 1010.8
20260905112449 64 178 0.0 0.9 0.00 0.00 0.00 86 1010.7
20260905111949 63 65 0.0 0.0 0.00 0.00 0.00 86 1010.7
20260905111451 63 73 0.0 1.7 0.00 0.00 0.00 86 1010.7
20260905110949 63 57 0.9 1.7 0.00 0.00 0.00 86 1010.6
20260905110450 63 360 0.0 0.0 0.00 0.00 0.00 86 1010.5
20260905105949 63 84 0.0 0.9 0.00 0.00 0.00 87 1010.4
20260905105450 63 77 0.0 1.7 0.00 0.00 0.00 87 1010.4
20260905104950 62 59 0.0 0.9 0.00 0.00 0.00 88 1010.4
20260905104449 62 360 0.0 0.0 0.00 0.00 0.00 88 1010.3
20260905103951 62 82 0.0 1.7 0.00 0.00 0.00 88 1010.3
20260905103449 62 91 0.9 1.7 0.00 0.00 0.00 87 1010.3
20260905102949 62 86 0.0 0.9 0.00 0.00 0.00 88 1010.3
20260905102449 62 91 0.0 1.7 0.00 0.00 0.00 88 1010.3
20260905101949 62 360 0.0 0.0 0.00 0.00 0.00 88 1010.2
20260905101450 63 360 0.0 0.0 0.00 0.00 0.00 87 1010.2
20260905100949 63 113 0.0 0.9 0.00 0.00 0.00 86 1010.2
20260905100449 63 360 0.0 0.0 0.00 0.00 0.00 86 1010.1
20260905095950 63 104 0.0 0.9 0.00 0.00 0.00 86 1010.1
20260905095449 63 360 0.0 0.0 0.00 0.00 0.00 85 1010.2
20260905094949 64 360 0.0 0.0 0.00 0.00 0.00 84 1010.1
20260905094449 64 360 0.0 0.0 0.00 0.00 0.00 83 1010.1
20260905093949 64 360 0.0 0.0 0.00 0.00 0.00 83 1010.0
20260905093450 64 360 0.0 0.0 0.00 0.00 0.00 83 1010.0
20260905092949 65 360 0.0 0.0 0.00 0.00 0.00 82 1010.0
20260905092450 65 360 0.0 0.0 0.00 0.00 0.00 81 1010.0
20260905091949 65 123 0.0 0.9 0.00 0.00 0.00 80 1010.0
20260905091449 65 360 0.0 0.0 0.00 0.00 0.00 79 1010.0
20260905090949 65 48 0.0 0.9 0.00 0.00 0.00 79 1010.0
20260905090450 65 113 0.0 1.7 0.00 0.00 0.00 79 1009.9
20260905085950 66 360 0.0 0.0 0.00 0.00 0.00 78 1009.9
20260905085449 66 100 0.0 0.9 0.00 0.00 0.00 77 1010.0
20260905084951 66 360 0.0 0.0 0.00 0.00 0.00 77 1010.0
20260905084450 67 360 0.0 0.0 0.00 0.00 0.00 76 1010.0
20260905083949 67 360 0.0 0.0 0.00 0.00 0.00 76 1010.0
20260905083450 67 72 0.0 0.9 0.00 0.00 0.00 75 1010.0
20260905082949 67 360 0.0 0.0 0.00 0.00 0.00 75 1010.0
20260905082450 67 360 0.0 0.0 0.00 0.00 0.00 74 1010.0
20260905081949 68 360 0.0 0.0 0.00 0.00 0.00 74 1010.0
20260905081450 68 62 0.9 1.7 0.00 0.00 0.00 73 1010.1
20260905080949 68 360 0.0 0.0 0.00 0.00 0.00 73 1010.0
20260905080452 69 98 0.9 1.7 0.00 0.00 0.00 73 1010.0
20260905075949 69 360 0.0 0.0 0.00 0.00 0.00 73 1010.1
20260905075450 69 51 0.0 0.9 0.00 0.00 0.00 71 1010.1
20260905074949 69 72 0.9 1.7 0.00 0.00 0.00 72 1010.0
20260905074449 69 70 0.9 2.6 0.00 0.00 0.00 71 1009.9
20260905073949 69 68 0.0 1.7 0.00 0.00 0.00 71 1010.0
20260905073450 69 67 0.9 1.7 0.00 0.00 0.00 71 1010.0
20260905072949 69 43 0.9 1.7 0.00 0.00 0.00 71 1009.9
20260905072449 69 67 0.9 2.6 0.00 0.00 0.00 70 1009.9
20260905071949 69 78 0.0 1.7 0.00 0.00 0.00 71 1010.0
20260905071449 70 63 0.9 1.7 0.00 0.00 0.00 70 1010.0
20260905070949 70 45 0.0 1.7 0.00 0.00 0.00 70 1010.1
20260905070449 70 68 1.7 3.5 0.00 0.00 0.00 70 1010.1